Year,Month,Day,Hour,Minute,Value (Times are PST for temperature in C)
2019,07,20,00,00,14.70
2019,07,20,00,01,14.70
2019,07,20,00,02,14.80
2019,07,20,00,03,14.80
2019,07,20,00,04,14.80
2019,07,20,00,05,14.80
2019,07,20,00,06,14.80
2019,07,20,00,07,14.80
2019,07,20,00,08,14.80
2019,07,20,00,09,14.80
2019,07,20,00,10,14.80
2019,07,20,00,11,14.80
2019,07,20,00,12,14.80
2019,07,20,00,13,14.80
2019,07,20,00,14,14.80
2019,07,20,00,15,14.80
2019,07,20,00,16,14.80
2019,07,20,00,17,14.80
2019,07,20,00,18,14.70
2019,07,20,00,19,14.70
2019,07,20,00,20,14.70
2019,07,20,00,21,14.60
2019,07,20,00,22,14.60
2019,07,20,00,23,14.60
2019,07,20,00,24,14.60
2019,07,20,00,25,14.50
2019,07,20,00,26,14.50
2019,07,20,00,27,14.50
2019,07,20,00,28,14.40
2019,07,20,00,29,14.40
2019,07,20,00,30,14.40
2019,07,20,00,31,14.40
2019,07,20,00,32,14.40
2019,07,20,00,33,14.30
2019,07,20,00,34,14.30
2019,07,20,00,35,14.30
2019,07,20,00,36,14.30
2019,07,20,00,37,14.30
2019,07,20,00,38,14.30
2019,07,20,00,39,14.30
2019,07,20,00,40,14.20
2019,07,20,00,41,14.20
2019,07,20,00,42,14.20
2019,07,20,00,43,14.20
2019,07,20,00,44,14.20
2019,07,20,00,45,14.20
2019,07,20,00,46,14.20
2019,07,20,00,47,14.20
2019,07,20,00,48,14.20
2019,07,20,00,49,14.10
2019,07,20,00,50,14.10
2019,07,20,00,51,14.10
2019,07,20,00,52,14.10
2019,07,20,00,53,14.10
2019,07,20,00,54,14.10
2019,07,20,00,55,14.10
2019,07,20,00,56,14.00
2019,07,20,00,57,14.00
2019,07,20,00,58,14.00
2019,07,20,00,59,14.00
2019,07,20,01,00,13.90
2019,07,20,01,01,13.90
2019,07,20,01,02,13.90
2019,07,20,01,03,13.90
2019,07,20,01,04,13.90
2019,07,20,01,05,13.90
2019,07,20,01,06,13.80
2019,07,20,01,07,13.80
2019,07,20,01,08,13.80
2019,07,20,01,09,13.80
2019,07,20,01,10,13.80
2019,07,20,01,11,13.80
2019,07,20,01,12,13.70
2019,07,20,01,13,13.70
2019,07,20,01,14,13.70
2019,07,20,01,15,13.70
2019,07,20,01,16,13.70
2019,07,20,01,17,13.70
2019,07,20,01,18,13.70
2019,07,20,01,19,13.60
2019,07,20,01,20,13.60
2019,07,20,01,21,13.60
2019,07,20,01,22,13.60
2019,07,20,01,23,13.60
2019,07,20,01,24,13.50
2019,07,20,01,25,13.50
2019,07,20,01,26,13.50
2019,07,20,01,27,13.40
2019,07,20,01,28,13.40
2019,07,20,01,29,13.40
2019,07,20,01,30,13.40
2019,07,20,01,31,13.40
2019,07,20,01,32,13.40
2019,07,20,01,33,13.40
2019,07,20,01,34,13.50
2019,07,20,01,35,13.50
2019,07,20,01,36,13.50
2019,07,20,01,37,13.50
2019,07,20,01,38,13.50
2019,07,20,01,39,13.50
2019,07,20,01,40,13.50
2019,07,20,01,41,13.50
2019,07,20,01,42,13.50
2019,07,20,01,43,13.50
2019,07,20,01,44,13.40
2019,07,20,01,45,13.40
2019,07,20,01,46,13.40
2019,07,20,01,47,13.40
2019,07,20,01,48,13.40
2019,07,20,01,49,13.40
2019,07,20,01,50,13.40
2019,07,20,01,51,13.40
2019,07,20,01,52,13.40
2019,07,20,01,53,13.40
2019,07,20,01,54,13.30
2019,07,20,01,55,13.30
2019,07,20,01,56,13.30
2019,07,20,01,57,13.30
2019,07,20,01,58,13.30
2019,07,20,01,59,13.20
2019,07,20,02,00,13.20
2019,07,20,02,01,13.20
2019,07,20,02,02,13.20
2019,07,20,02,03,13.20
2019,07,20,02,04,13.30
2019,07,20,02,05,13.30
2019,07,20,02,06,13.20
2019,07,20,02,07,13.20
2019,07,20,02,08,13.20
2019,07,20,02,09,13.20
2019,07,20,02,10,13.20
2019,07,20,02,11,13.20
2019,07,20,02,12,13.20
2019,07,20,02,13,13.10
2019,07,20,02,14,13.10
2019,07,20,02,15,13.10
2019,07,20,02,16,13.00
2019,07,20,02,17,13.00
2019,07,20,02,18,12.90
2019,07,20,02,19,12.90
2019,07,20,02,20,12.90
2019,07,20,02,21,12.90
2019,07,20,02,22,12.90
2019,07,20,02,23,12.90
2019,07,20,02,24,12.90
2019,07,20,02,25,12.80
2019,07,20,02,26,12.80
2019,07,20,02,27,12.80
2019,07,20,02,28,12.80
2019,07,20,02,29,12.80
2019,07,20,02,30,12.70
2019,07,20,02,31,12.70
2019,07,20,02,32,12.70
2019,07,20,02,33,12.60
2019,07,20,02,34,12.60
2019,07,20,02,35,12.60
2019,07,20,02,36,12.50
2019,07,20,02,37,12.50
2019,07,20,02,38,12.40
2019,07,20,02,39,12.40
2019,07,20,02,40,12.40
2019,07,20,02,41,12.40
2019,07,20,02,42,12.40
2019,07,20,02,43,12.40
2019,07,20,02,44,12.40
2019,07,20,02,45,12.40
2019,07,20,02,46,12.30
2019,07,20,02,47,12.30
2019,07,20,02,48,12.30
2019,07,20,02,49,12.30
2019,07,20,02,50,12.30
2019,07,20,02,51,12.20
2019,07,20,02,52,12.20
2019,07,20,02,53,12.20
2019,07,20,02,54,12.20
2019,07,20,02,55,12.20
2019,07,20,02,56,12.20
2019,07,20,02,57,12.10
2019,07,20,02,58,12.10
2019,07,20,02,59,12.10
2019,07,20,03,00,12.10
2019,07,20,03,01,12.10
2019,07,20,03,02,12.00
2019,07,20,03,03,12.00
2019,07,20,03,04,12.00
2019,07,20,03,05,12.00
2019,07,20,03,06,11.90
2019,07,20,03,07,11.90
2019,07,20,03,08,11.90
2019,07,20,03,09,11.90
2019,07,20,03,10,11.90
2019,07,20,03,11,11.90
2019,07,20,03,12,11.80
2019,07,20,03,13,11.80
2019,07,20,03,14,11.80
2019,07,20,03,15,11.80
2019,07,20,03,16,11.80
2019,07,20,03,17,11.80
2019,07,20,03,18,11.80
2019,07,20,03,19,11.80
2019,07,20,03,20,11.80
2019,07,20,03,21,11.80
2019,07,20,03,22,11.80
2019,07,20,03,23,11.80
2019,07,20,03,24,11.80
2019,07,20,03,25,11.80
2019,07,20,03,26,11.70
2019,07,20,03,27,11.70
2019,07,20,03,28,11.70
2019,07,20,03,29,11.80
2019,07,20,03,30,11.80
2019,07,20,03,31,11.80
2019,07,20,03,32,11.70
2019,07,20,03,33,11.80
2019,07,20,03,34,11.80
2019,07,20,03,35,11.80
2019,07,20,03,36,11.80
2019,07,20,03,37,11.80
2019,07,20,03,38,11.80
2019,07,20,03,39,11.80
2019,07,20,03,40,11.80
2019,07,20,03,41,11.80
2019,07,20,03,42,11.80
2019,07,20,03,43,11.70
2019,07,20,03,44,11.70
2019,07,20,03,45,11.70
2019,07,20,03,46,11.70
2019,07,20,03,47,11.70
2019,07,20,03,48,11.70
2019,07,20,03,49,11.70
2019,07,20,03,50,11.70
2019,07,20,03,51,11.70
2019,07,20,03,52,11.70
2019,07,20,03,53,11.70
2019,07,20,03,54,11.70
2019,07,20,03,55,11.70
2019,07,20,03,56,11.70
2019,07,20,03,57,11.70
2019,07,20,03,58,11.70
2019,07,20,03,59,11.70
2019,07,20,04,00,11.70
2019,07,20,04,01,11.70
2019,07,20,04,02,11.70
2019,07,20,04,03,11.70
2019,07,20,04,04,11.70
2019,07,20,04,05,11.80
2019,07,20,04,06,11.80
2019,07,20,04,07,11.80
2019,07,20,04,08,11.90
2019,07,20,04,09,11.90
2019,07,20,04,10,11.90
2019,07,20,04,11,12.00
2019,07,20,04,12,11.90
2019,07,20,04,13,12.00
2019,07,20,04,14,11.90
2019,07,20,04,15,11.90
2019,07,20,04,16,11.90
2019,07,20,04,17,11.90
2019,07,20,04,18,11.90
2019,07,20,04,19,11.90
2019,07,20,04,20,11.80
2019,07,20,04,21,11.80
2019,07,20,04,22,11.80
2019,07,20,04,23,11.80
2019,07,20,04,24,11.80
2019,07,20,04,25,11.70
2019,07,20,04,26,11.70
2019,07,20,04,27,11.70
2019,07,20,04,28,11.70
2019,07,20,04,29,11.70
2019,07,20,04,30,11.70
2019,07,20,04,31,11.70
2019,07,20,04,32,11.70
2019,07,20,04,33,11.70
2019,07,20,04,34,11.70
2019,07,20,04,35,11.70
2019,07,20,04,36,11.70
2019,07,20,04,37,11.60
2019,07,20,04,38,11.60
2019,07,20,04,39,11.60
2019,07,20,04,40,11.60
2019,07,20,04,41,11.50
2019,07,20,04,42,11.50
2019,07,20,04,43,11.50
2019,07,20,04,44,11.40
2019,07,20,04,45,11.40
2019,07,20,04,46,11.40
2019,07,20,04,47,11.40
2019,07,20,04,48,11.40
2019,07,20,04,49,11.30
2019,07,20,04,50,11.30
2019,07,20,04,51,11.30
2019,07,20,04,52,11.30
2019,07,20,04,53,11.40
2019,07,20,04,54,11.50
2019,07,20,04,55,11.60
2019,07,20,04,56,11.70
2019,07,20,04,57,11.70
2019,07,20,04,58,11.70
2019,07,20,04,59,11.70
2019,07,20,05,00,11.70
2019,07,20,05,01,11.70
2019,07,20,05,02,11.70
2019,07,20,05,03,11.70
2019,07,20,05,04,11.70
2019,07,20,05,05,11.60
2019,07,20,05,06,11.60
2019,07,20,05,07,11.60
2019,07,20,05,08,11.60
2019,07,20,05,09,11.60
2019,07,20,05,10,11.60
2019,07,20,05,11,11.60
2019,07,20,05,12,11.60
2019,07,20,05,13,11.60
2019,07,20,05,14,11.50
2019,07,20,05,15,11.50
2019,07,20,05,16,11.50
2019,07,20,05,17,11.40
2019,07,20,05,18,11.40
2019,07,20,05,19,11.40
2019,07,20,05,20,11.40
2019,07,20,05,21,11.40
2019,07,20,05,22,11.40
2019,07,20,05,23,11.30
2019,07,20,05,24,11.30
2019,07,20,05,25,11.40
2019,07,20,05,26,11.40
2019,07,20,05,27,11.40
2019,07,20,05,28,11.50
2019,07,20,05,29,11.50
2019,07,20,05,30,11.60
2019,07,20,05,31,11.60
2019,07,20,05,32,11.60
2019,07,20,05,33,11.70
2019,07,20,05,34,11.70
2019,07,20,05,35,11.70
2019,07,20,05,36,11.60
2019,07,20,05,37,11.70
2019,07,20,05,38,11.70
2019,07,20,05,39,11.70
2019,07,20,05,40,11.70
2019,07,20,05,41,11.70
2019,07,20,05,42,11.70
2019,07,20,05,43,11.60
2019,07,20,05,44,11.60
2019,07,20,05,45,11.50
2019,07,20,05,46,11.50
2019,07,20,05,47,11.40
2019,07,20,05,48,11.40
2019,07,20,05,49,11.40
2019,07,20,05,50,11.40
2019,07,20,05,51,11.30
2019,07,20,05,52,11.20
2019,07,20,05,53,11.20
2019,07,20,05,54,11.10
2019,07,20,05,55,11.10
2019,07,20,05,56,11.10
2019,07,20,05,57,11.10
2019,07,20,05,58,11.10
2019,07,20,05,59,11.10
2019,07,20,06,00,11.10
2019,07,20,06,01,11.10
2019,07,20,06,02,11.00
2019,07,20,06,03,11.00
2019,07,20,06,04,11.00
2019,07,20,06,05,11.00
2019,07,20,06,06,11.10
2019,07,20,06,07,11.10
2019,07,20,06,08,11.10
2019,07,20,06,09,11.10
2019,07,20,06,10,11.00
2019,07,20,06,11,11.00
2019,07,20,06,12,11.00
2019,07,20,06,13,11.00
2019,07,20,06,14,11.00
2019,07,20,06,15,11.00
2019,07,20,06,16,11.00
2019,07,20,06,17,11.00
2019,07,20,06,18,11.10
2019,07,20,06,19,11.10
2019,07,20,06,20,11.20
2019,07,20,06,21,11.20
2019,07,20,06,22,11.20
2019,07,20,06,23,11.20
2019,07,20,06,24,11.20
2019,07,20,06,25,11.20
2019,07,20,06,26,11.30
2019,07,20,06,27,11.30
2019,07,20,06,28,11.40
2019,07,20,06,29,11.50
2019,07,20,06,30,11.50
2019,07,20,06,31,11.60
2019,07,20,06,32,11.60
2019,07,20,06,33,11.70
2019,07,20,06,34,11.70
2019,07,20,06,35,11.70
2019,07,20,06,36,11.80
2019,07,20,06,37,11.80
2019,07,20,06,38,11.80
2019,07,20,06,39,11.90
2019,07,20,06,40,11.90
2019,07,20,06,41,11.90
2019,07,20,06,42,12.00
2019,07,20,06,43,12.00
2019,07,20,06,44,12.00
2019,07,20,06,45,12.10
2019,07,20,06,46,12.10
2019,07,20,06,47,12.20
2019,07,20,06,48,12.20
2019,07,20,06,49,12.30
2019,07,20,06,50,12.40
2019,07,20,06,51,12.40
2019,07,20,06,52,12.50
2019,07,20,06,53,12.50
2019,07,20,06,54,12.60
2019,07,20,06,55,12.70
2019,07,20,06,56,12.70
2019,07,20,06,57,12.80
2019,07,20,06,58,12.80
2019,07,20,06,59,12.90
2019,07,20,07,00,12.90
2019,07,20,07,01,13.00
2019,07,20,07,02,13.00
2019,07,20,07,03,13.10
2019,07,20,07,04,13.10
2019,07,20,07,05,13.10
2019,07,20,07,06,13.20
2019,07,20,07,07,13.20
2019,07,20,07,08,13.30
2019,07,20,07,09,13.30
2019,07,20,07,10,13.40
2019,07,20,07,11,13.40
2019,07,20,07,12,13.50
2019,07,20,07,13,13.60
2019,07,20,07,14,13.60
2019,07,20,07,15,13.60
2019,07,20,07,16,13.70
2019,07,20,07,17,13.70
2019,07,20,07,18,13.70
2019,07,20,07,19,13.70
2019,07,20,07,20,13.80
2019,07,20,07,21,13.80
2019,07,20,07,22,13.80
2019,07,20,07,23,13.80
2019,07,20,07,24,13.90
2019,07,20,07,25,13.90
2019,07,20,07,26,13.90
2019,07,20,07,27,14.00
2019,07,20,07,28,14.10
2019,07,20,07,29,14.10
2019,07,20,07,30,14.10
2019,07,20,07,31,14.20
2019,07,20,07,32,14.20
2019,07,20,07,33,14.30
2019,07,20,07,34,14.30
2019,07,20,07,35,14.30
2019,07,20,07,36,14.30
2019,07,20,07,37,14.30
2019,07,20,07,38,14.40
2019,07,20,07,39,14.40
2019,07,20,07,40,14.50
2019,07,20,07,41,14.50
2019,07,20,07,42,14.60
2019,07,20,07,43,14.60
2019,07,20,07,44,14.60
2019,07,20,07,45,14.60
2019,07,20,07,46,14.60
2019,07,20,07,47,14.60
2019,07,20,07,48,14.60
2019,07,20,07,49,14.70
2019,07,20,07,50,14.70
2019,07,20,07,51,14.70
2019,07,20,07,52,14.70
2019,07,20,07,53,14.70
2019,07,20,07,54,14.70
2019,07,20,07,55,14.70
2019,07,20,07,56,14.70
2019,07,20,07,57,14.80
2019,07,20,07,58,14.80
2019,07,20,07,59,14.80
2019,07,20,08,00,14.80
2019,07,20,08,01,14.80
2019,07,20,08,02,14.80
2019,07,20,08,03,14.90
2019,07,20,08,04,14.90
2019,07,20,08,05,14.90
2019,07,20,08,06,15.00
2019,07,20,08,07,15.10
2019,07,20,08,08,15.10
2019,07,20,08,09,15.10
2019,07,20,08,10,15.20
2019,07,20,08,11,15.20
2019,07,20,08,12,15.20
2019,07,20,08,13,15.20
2019,07,20,08,14,15.20
2019,07,20,08,15,15.20
2019,07,20,08,16,15.30
2019,07,20,08,17,15.30
2019,07,20,08,18,15.30
2019,07,20,08,19,15.30
2019,07,20,08,20,15.30
2019,07,20,08,21,15.40
2019,07,20,08,22,15.40
2019,07,20,08,23,15.40
2019,07,20,08,24,15.50
2019,07,20,08,25,15.50
2019,07,20,08,26,15.50
2019,07,20,08,27,15.60
2019,07,20,08,28,15.60
2019,07,20,08,29,15.60
2019,07,20,08,30,15.60
2019,07,20,08,31,15.60
2019,07,20,08,32,15.70
2019,07,20,08,33,15.70
2019,07,20,08,34,15.70
2019,07,20,08,35,15.70
2019,07,20,08,36,15.70
2019,07,20,08,37,15.70
2019,07,20,08,38,15.80
2019,07,20,08,39,15.80
2019,07,20,08,40,15.80
2019,07,20,08,41,15.90
2019,07,20,08,42,15.90
2019,07,20,08,43,15.90
2019,07,20,08,44,16.00
2019,07,20,08,45,16.00
2019,07,20,08,46,16.10
2019,07,20,08,47,16.10
2019,07,20,08,48,16.10
2019,07,20,08,49,16.10
2019,07,20,08,50,16.20
2019,07,20,08,51,16.20
2019,07,20,08,52,16.30
2019,07,20,08,53,16.30
2019,07,20,08,54,16.30
2019,07,20,08,55,16.30
2019,07,20,08,56,16.30
2019,07,20,08,57,16.40
2019,07,20,08,58,16.40
2019,07,20,08,59,16.40
2019,07,20,09,00,16.50
2019,07,20,09,01,16.50
2019,07,20,09,02,16.60
2019,07,20,09,03,16.60
2019,07,20,09,04,16.60
2019,07,20,09,05,16.70
2019,07,20,09,06,16.70
2019,07,20,09,07,16.70
2019,07,20,09,08,16.80
2019,07,20,09,09,16.80
2019,07,20,09,10,16.80
2019,07,20,09,11,16.90
2019,07,20,09,12,16.90
2019,07,20,09,13,16.90
2019,07,20,09,14,16.90
2019,07,20,09,15,16.90
2019,07,20,09,16,17.00
2019,07,20,09,17,17.00
2019,07,20,09,18,17.10
2019,07,20,09,19,17.20
2019,07,20,09,20,17.20
2019,07,20,09,21,17.30
2019,07,20,09,22,17.30
2019,07,20,09,23,17.30
2019,07,20,09,24,17.30
2019,07,20,09,25,17.30
2019,07,20,09,26,17.40
2019,07,20,09,27,17.40
2019,07,20,09,28,17.40
2019,07,20,09,29,17.40
2019,07,20,09,30,17.50
2019,07,20,09,31,17.60
2019,07,20,09,32,17.60
2019,07,20,09,33,17.60
2019,07,20,09,34,17.60
2019,07,20,09,35,17.60
2019,07,20,09,36,17.70
2019,07,20,09,37,17.70
2019,07,20,09,38,17.80
2019,07,20,09,39,17.80
2019,07,20,09,40,17.90
2019,07,20,09,41,18.00
2019,07,20,09,42,18.00
2019,07,20,09,43,18.00
2019,07,20,09,44,18.10
2019,07,20,09,45,18.10
2019,07,20,09,46,18.10
2019,07,20,09,47,18.10
2019,07,20,09,48,18.10
2019,07,20,09,49,18.10
2019,07,20,09,50,18.10
2019,07,20,09,51,18.10
2019,07,20,09,52,18.10
2019,07,20,09,53,18.10
2019,07,20,09,54,18.10
2019,07,20,09,55,18.10
2019,07,20,09,56,18.10
2019,07,20,09,57,18.10
2019,07,20,09,58,18.10
2019,07,20,09,59,18.20
2019,07,20,10,00,18.20
2019,07,20,10,01,18.20
2019,07,20,10,02,18.30
2019,07,20,10,03,18.40
2019,07,20,10,04,18.40
2019,07,20,10,05,18.50
2019,07,20,10,06,18.50
2019,07,20,10,07,18.50
2019,07,20,10,08,18.50
2019,07,20,10,09,18.60
2019,07,20,10,10,18.60
2019,07,20,10,11,18.60
2019,07,20,10,12,18.60
2019,07,20,10,13,18.60
2019,07,20,10,14,18.60
2019,07,20,10,15,18.60
2019,07,20,10,16,18.60
2019,07,20,10,17,18.50
2019,07,20,10,18,18.50
2019,07,20,10,19,18.50
2019,07,20,10,20,18.50
2019,07,20,10,21,18.60
2019,07,20,10,22,18.60
2019,07,20,10,23,18.60
2019,07,20,10,24,18.60
2019,07,20,10,25,18.70
2019,07,20,10,26,18.70
2019,07,20,10,27,18.70
2019,07,20,10,28,18.80
2019,07,20,10,29,18.80
2019,07,20,10,30,18.80
2019,07,20,10,31,18.80
2019,07,20,10,32,18.80
2019,07,20,10,33,18.80
2019,07,20,10,34,18.80
2019,07,20,10,35,18.80
2019,07,20,10,36,18.90
2019,07,20,10,37,19.00
2019,07,20,10,38,19.10
2019,07,20,10,39,19.10
2019,07,20,10,40,19.10
2019,07,20,10,41,19.10
2019,07,20,10,42,19.10
2019,07,20,10,43,19.10
2019,07,20,10,44,19.10
2019,07,20,10,45,19.10
2019,07,20,10,46,19.10
2019,07,20,10,47,19.20
2019,07,20,10,48,19.30
2019,07,20,10,49,19.40
2019,07,20,10,50,19.40
2019,07,20,10,51,19.50
2019,07,20,10,52,19.50
2019,07,20,10,53,19.60
2019,07,20,10,54,19.70
2019,07,20,10,55,19.60
2019,07,20,10,56,19.60
2019,07,20,10,57,19.60
2019,07,20,10,58,19.70
2019,07,20,10,59,19.70
2019,07,20,11,00,19.70
2019,07,20,11,01,19.70
2019,07,20,11,02,19.60
2019,07,20,11,03,19.60
2019,07,20,11,04,19.60
2019,07,20,11,05,19.60
2019,07,20,11,06,19.60
2019,07,20,11,07,19.60
2019,07,20,11,08,19.60
2019,07,20,11,09,19.60
2019,07,20,11,10,19.60
2019,07,20,11,11,19.60
2019,07,20,11,12,19.60
2019,07,20,11,13,19.70
2019,07,20,11,14,19.70
2019,07,20,11,15,19.70
2019,07,20,11,16,19.70
2019,07,20,11,17,19.70
2019,07,20,11,18,19.70
2019,07,20,11,19,19.70
2019,07,20,11,20,19.70
2019,07,20,11,21,19.70
2019,07,20,11,22,19.90
2019,07,20,11,23,20.00
2019,07,20,11,24,20.10
2019,07,20,11,25,20.20
2019,07,20,11,26,20.20
2019,07,20,11,27,20.10
2019,07,20,11,28,20.10
2019,07,20,11,29,20.10
2019,07,20,11,30,20.00
2019,07,20,11,31,20.00
2019,07,20,11,32,19.90
2019,07,20,11,33,19.90
2019,07,20,11,34,19.90
2019,07,20,11,35,19.90
2019,07,20,11,36,19.90
2019,07,20,11,37,19.90
2019,07,20,11,38,20.00
2019,07,20,11,39,20.00
2019,07,20,11,40,20.00
2019,07,20,11,41,20.00
2019,07,20,11,42,20.00
2019,07,20,11,43,20.00
2019,07,20,11,44,20.00
2019,07,20,11,45,20.10
2019,07,20,11,46,20.10
2019,07,20,11,47,20.10
2019,07,20,11,48,20.20
2019,07,20,11,49,20.20
2019,07,20,11,50,20.30
2019,07,20,11,51,20.30
2019,07,20,11,52,20.30
2019,07,20,11,53,20.30
2019,07,20,11,54,20.30
2019,07,20,11,55,20.30
2019,07,20,11,56,20.30
2019,07,20,11,57,20.30
2019,07,20,11,58,20.20
2019,07,20,11,59,20.20
2019,07,20,12,00,20.20
2019,07,20,12,01,20.30
2019,07,20,12,02,20.30
2019,07,20,12,03,20.30
2019,07,20,12,04,20.40
2019,07,20,12,05,20.40
2019,07,20,12,06,20.50
2019,07,20,12,07,20.60
2019,07,20,12,08,20.60
2019,07,20,12,09,20.70
2019,07,20,12,10,20.70
2019,07,20,12,11,20.70
2019,07,20,12,12,20.70
2019,07,20,12,13,20.70
2019,07,20,12,14,20.70
2019,07,20,12,15,20.80
2019,07,20,12,16,20.80
2019,07,20,12,17,20.80
2019,07,20,12,18,20.80
2019,07,20,12,19,20.80
2019,07,20,12,20,20.80
2019,07,20,12,21,20.70
2019,07,20,12,22,20.70
2019,07,20,12,23,20.70
2019,07,20,12,24,20.70
2019,07,20,12,25,20.70
2019,07,20,12,26,20.70
2019,07,20,12,27,20.70
2019,07,20,12,28,20.80
2019,07,20,12,29,20.90
2019,07,20,12,30,21.00
2019,07,20,12,31,21.10
2019,07,20,12,32,21.10
2019,07,20,12,33,21.20
2019,07,20,12,34,21.20
2019,07,20,12,35,21.20
2019,07,20,12,36,21.30
2019,07,20,12,37,21.40
2019,07,20,12,38,21.40
2019,07,20,12,39,21.40
2019,07,20,12,40,21.50
2019,07,20,12,41,21.50
2019,07,20,12,42,21.50
2019,07,20,12,43,21.50
2019,07,20,12,44,21.50
2019,07,20,12,45,21.50
2019,07,20,12,46,21.50
2019,07,20,12,47,21.60
2019,07,20,12,48,21.60
2019,07,20,12,49,21.60
2019,07,20,12,50,21.60
2019,07,20,12,51,21.70
2019,07,20,12,52,21.70
2019,07,20,12,53,21.80
2019,07,20,12,54,21.80
2019,07,20,12,55,21.90
2019,07,20,12,56,21.90
2019,07,20,12,57,21.90
2019,07,20,12,58,21.80
2019,07,20,12,59,21.80
2019,07,20,13,00,21.80
2019,07,20,13,01,21.90
2019,07,20,13,02,22.00
2019,07,20,13,03,22.00
2019,07,20,13,04,22.10
2019,07,20,13,05,22.20
2019,07,20,13,06,22.10
2019,07,20,13,07,22.10
2019,07,20,13,08,22.10
2019,07,20,13,09,22.10
2019,07,20,13,10,22.20
2019,07,20,13,11,22.30
2019,07,20,13,12,22.30
2019,07,20,13,13,22.40
2019,07,20,13,14,22.50
2019,07,20,13,15,22.50
2019,07,20,13,16,22.50
2019,07,20,13,17,22.40
2019,07,20,13,18,22.40
2019,07,20,13,19,22.30
2019,07,20,13,20,22.30
2019,07,20,13,21,22.30
2019,07,20,13,22,22.40
2019,07,20,13,23,22.50
2019,07,20,13,24,22.50
2019,07,20,13,25,22.70
2019,07,20,13,26,22.80
2019,07,20,13,27,22.90
2019,07,20,13,28,23.00
2019,07,20,13,29,23.10
2019,07,20,13,30,23.20
2019,07,20,13,31,23.30
2019,07,20,13,32,23.40
2019,07,20,13,33,23.50
2019,07,20,13,34,23.60
2019,07,20,13,35,23.60
2019,07,20,13,36,23.60
2019,07,20,13,37,23.60
2019,07,20,13,38,23.60
2019,07,20,13,39,23.60
2019,07,20,13,40,23.60
2019,07,20,13,41,23.60
2019,07,20,13,42,23.50
2019,07,20,13,43,23.50
2019,07,20,13,44,23.40
2019,07,20,13,45,23.50
2019,07,20,13,46,23.50
2019,07,20,13,47,23.60
2019,07,20,13,48,23.70
2019,07,20,13,49,23.80
2019,07,20,13,50,23.80
2019,07,20,13,51,23.80
2019,07,20,13,52,23.70
2019,07,20,13,53,23.70
2019,07,20,13,54,23.70
2019,07,20,13,55,23.80
2019,07,20,13,56,23.80
2019,07,20,13,57,23.80
2019,07,20,13,58,23.80
2019,07,20,13,59,23.90
2019,07,20,14,00,23.90
2019,07,20,14,01,23.90
2019,07,20,14,02,23.90
2019,07,20,14,03,24.00
2019,07,20,14,04,24.00
2019,07,20,14,05,24.10
2019,07,20,14,06,24.20
2019,07,20,14,07,24.20
2019,07,20,14,08,24.20
2019,07,20,14,09,24.20
2019,07,20,14,10,24.30
2019,07,20,14,11,24.30
2019,07,20,14,12,24.30
2019,07,20,14,13,24.30
2019,07,20,14,14,24.30
2019,07,20,14,15,24.20
2019,07,20,14,16,24.20
2019,07,20,14,17,24.20
2019,07,20,14,18,24.20
2019,07,20,14,19,24.20
2019,07,20,14,20,24.10
2019,07,20,14,21,24.00
2019,07,20,14,22,24.00
2019,07,20,14,23,23.90
2019,07,20,14,24,23.90
2019,07,20,14,25,24.00
2019,07,20,14,26,24.10
2019,07,20,14,27,24.20
2019,07,20,14,28,24.20
2019,07,20,14,29,24.20
2019,07,20,14,30,24.20
2019,07,20,14,31,24.20
2019,07,20,14,32,24.10
2019,07,20,14,33,24.10
2019,07,20,14,34,24.10
2019,07,20,14,35,24.20
2019,07,20,14,36,24.30
2019,07,20,14,37,24.40
2019,07,20,14,38,24.50
2019,07,20,14,39,24.60
2019,07,20,14,40,24.60
2019,07,20,14,41,24.70
2019,07,20,14,42,24.70
2019,07,20,14,43,24.70
2019,07,20,14,44,24.80
2019,07,20,14,45,24.80
2019,07,20,14,46,24.80
2019,07,20,14,47,24.80
2019,07,20,14,48,24.80
2019,07,20,14,49,24.80
2019,07,20,14,50,24.80
2019,07,20,14,51,24.80
2019,07,20,14,52,24.90
2019,07,20,14,53,24.80
2019,07,20,14,54,24.80
2019,07,20,14,55,24.70
2019,07,20,14,56,24.60
2019,07,20,14,57,24.60
2019,07,20,14,58,24.60
2019,07,20,14,59,24.60
2019,07,20,15,00,24.60
2019,07,20,15,01,24.60
2019,07,20,15,02,24.60
2019,07,20,15,03,24.70
2019,07,20,15,04,24.80
2019,07,20,15,05,24.90
2019,07,20,15,06,25.00
2019,07,20,15,07,25.00
2019,07,20,15,08,25.10
2019,07,20,15,09,25.10
2019,07,20,15,10,25.10
2019,07,20,15,11,25.10
2019,07,20,15,12,25.00
2019,07,20,15,13,24.90
2019,07,20,15,14,24.80
2019,07,20,15,15,24.80
2019,07,20,15,16,24.80
2019,07,20,15,17,24.70
2019,07,20,15,18,24.70
2019,07,20,15,19,24.70
2019,07,20,15,20,24.70
2019,07,20,15,21,24.60
2019,07,20,15,22,24.60
2019,07,20,15,23,24.60
2019,07,20,15,24,24.60
2019,07,20,15,25,24.60
2019,07,20,15,26,24.50
2019,07,20,15,27,24.40
2019,07,20,15,28,24.40
2019,07,20,15,29,24.40
2019,07,20,15,30,24.40
2019,07,20,15,31,24.40
2019,07,20,15,32,24.50
2019,07,20,15,33,24.50
2019,07,20,15,34,24.60
2019,07,20,15,35,24.60
2019,07,20,15,36,24.70
2019,07,20,15,37,24.70
2019,07,20,15,38,24.80
2019,07,20,15,39,24.90
2019,07,20,15,40,24.90
2019,07,20,15,41,24.90
2019,07,20,15,42,24.90
2019,07,20,15,43,24.90
2019,07,20,15,44,24.90
2019,07,20,15,45,24.90
2019,07,20,15,46,24.90
2019,07,20,15,47,24.80
2019,07,20,15,48,24.70
2019,07,20,15,49,24.60
2019,07,20,15,50,24.50
2019,07,20,15,51,24.40
2019,07,20,15,52,24.30
2019,07,20,15,53,24.20
2019,07,20,15,54,24.20
2019,07,20,15,55,24.20
2019,07,20,15,56,24.30
2019,07,20,15,57,24.40
2019,07,20,15,58,24.50
2019,07,20,15,59,24.60
2019,07,20,16,00,24.60
2019,07,20,16,01,24.70
2019,07,20,16,02,24.80
2019,07,20,16,03,24.90
2019,07,20,16,04,25.00
2019,07,20,16,05,25.10
2019,07,20,16,06,25.10
2019,07,20,16,07,25.10
2019,07,20,16,08,25.10
2019,07,20,16,09,25.10
2019,07,20,16,10,25.10
2019,07,20,16,11,25.10
2019,07,20,16,12,25.00
2019,07,20,16,13,25.00
2019,07,20,16,14,25.10
2019,07,20,16,15,25.10
2019,07,20,16,16,25.10
2019,07,20,16,17,25.00
2019,07,20,16,18,24.90
2019,07,20,16,19,24.80
2019,07,20,16,20,24.70
2019,07,20,16,21,24.60
2019,07,20,16,22,24.60
2019,07,20,16,23,24.60
2019,07,20,16,24,24.70
2019,07,20,16,25,24.70
2019,07,20,16,26,24.70
2019,07,20,16,27,24.80
2019,07,20,16,28,24.90
2019,07,20,16,29,25.00
2019,07,20,16,30,25.10
2019,07,20,16,31,25.10
2019,07,20,16,32,25.20
2019,07,20,16,33,25.20
2019,07,20,16,34,25.20
2019,07,20,16,35,25.30
2019,07,20,16,36,25.30
2019,07,20,16,37,25.40
2019,07,20,16,38,25.50
2019,07,20,16,39,25.60
2019,07,20,16,40,25.60
2019,07,20,16,41,25.70
2019,07,20,16,42,25.70
2019,07,20,16,43,25.70
2019,07,20,16,44,25.70
2019,07,20,16,45,25.70
2019,07,20,16,46,25.70
2019,07,20,16,47,25.70
2019,07,20,16,48,25.70
2019,07,20,16,49,25.70
2019,07,20,16,50,25.70
2019,07,20,16,51,25.80
2019,07,20,16,52,25.80
2019,07,20,16,53,25.80
2019,07,20,16,54,25.80
2019,07,20,16,55,25.80
2019,07,20,16,56,25.80
2019,07,20,16,57,25.80
2019,07,20,16,58,25.90
2019,07,20,16,59,25.90
2019,07,20,17,00,25.90
2019,07,20,17,01,25.90
2019,07,20,17,02,25.90
2019,07,20,17,03,25.90
2019,07,20,17,04,25.90
2019,07,20,17,05,25.80
2019,07,20,17,06,25.80
2019,07,20,17,07,25.90
2019,07,20,17,08,25.90
2019,07,20,17,09,25.90
2019,07,20,17,10,25.90
2019,07,20,17,11,25.90
2019,07,20,17,12,25.80
2019,07,20,17,13,25.80
2019,07,20,17,14,25.80
2019,07,20,17,15,25.70
2019,07,20,17,16,25.80
2019,07,20,17,17,25.80
2019,07,20,17,18,25.80
2019,07,20,17,19,25.80